Terminal Aerodrome Forecast
Issued by NWS Houston/Galveston TX

Home | Current Version | Previous Version | Text Only | Print | Product List | Glossary On
Versions: 1 2 3 4 5 6 7 8 9 10 11 12 13 14 15 16 17 18 19 20 21 22 23 24 25 26 27 28 29 30 31 32 33 34 35 36 37 38 39 40 41 42 43 44 45 46 47 48 49 50
000
FTUS44 KHGX 272055 AAC
TAFHOU
TAF AMD
KHOU 272055Z 2721/2818 08011KT P6SM VCTS SCT040CB BKN250
     FM280100 11005KT P6SM BKN250
     FM281500 13007KT P6SM VCSH BKN040 BKN150=

USA.gov is the U.S. government's official web portal to all federal, state and local government web resources and services.